RYR484F EGSS-LFBH

Flight info

Callsign RYR484F
Flight time 1h 15m
Altitude 30000
Route NUGBO M183 SILVA Q41 SAM M195 MARUK N621 LELNA DCT DOMOK UT260 UPALO UN862 GODAN A25 LUSON
Aircraft B738/M-SDE3FGILRWY/SB1

Departure

Time 2026-05-05 18:00
Airport London Stansted Airport (EGSS)

Arrival

Time 2026-05-05 19:15
Airport La Rochelle Île de Ré Airport (LFBH)
Time Latitude Longitude Altitude Speed Heading
2026-05-05 17:22 51.89450 0.25864 359 ft 0 kts 218°
2026-05-05 17:49 51.89464 0.25882 354 ft 4 kts 218°
2026-05-05 17:49 51.89481 0.25903 359 ft 4 kts 227°
2026-05-05 17:50 51.89488 0.25931 360 ft 4 kts 304°
2026-05-05 17:50 51.89472 0.25961 358 ft 3 kts 313°
2026-05-05 17:50 51.89470 0.25964 357 ft 1 kts 313°
2026-05-05 17:53 51.89471 0.25963 358 ft 1 kts 313°
2026-05-05 17:53 51.89485 0.25939 360 ft 5 kts 313°
2026-05-05 17:53 51.89517 0.25886 351 ft 7 kts 313°
2026-05-05 17:54 51.89528 0.25810 351 ft 8 kts 248°
2026-05-05 17:54 51.89486 0.25739 354 ft 10 kts 223°
2026-05-05 17:54 51.89425 0.25650 351 ft 14 kts 222°
2026-05-05 17:54 51.89345 0.25531 351 ft 18 kts 223°
2026-05-05 17:55 51.89246 0.25382 355 ft 21 kts 223°
2026-05-05 17:55 51.89133 0.25212 351 ft 23 kts 221°
2026-05-05 17:55 51.89015 0.25036 351 ft 23 kts 222°
2026-05-05 17:55 51.88900 0.24864 356 ft 22 kts 223°
2026-05-05 17:56 51.88789 0.24698 351 ft 21 kts 224°
2026-05-05 17:56 51.88671 0.24520 351 ft 25 kts 223°
2026-05-05 17:56 51.88540 0.24322 349 ft 27 kts 223°
2026-05-05 17:56 51.88407 0.24122 346 ft 25 kts 223°
2026-05-05 17:57 51.88281 0.23935 344 ft 24 kts 222°
2026-05-05 17:57 51.88147 0.23732 339 ft 29 kts 223°
2026-05-05 17:57 51.88002 0.23515 340 ft 27 kts 223°
2026-05-05 17:57 51.87868 0.23318 336 ft 25 kts 223°
2026-05-05 17:58 51.87750 0.23139 337 ft 17 kts 223°
2026-05-05 17:58 51.87762 0.22986 335 ft 16 kts 315°
2026-05-05 17:58 51.87849 0.22826 332 ft 23 kts 312°
2026-05-05 17:58 51.87938 0.22675 331 ft 9 kts 318°
2026-05-05 17:59 51.87982 0.22703 331 ft 4 kts 43°
2026-05-05 17:59 51.88057 0.22817 332 ft 42 kts 43°
2026-05-05 17:59 51.88466 0.23430 336 ft 116 kts 43°
2026-05-05 17:59 51.89203 0.24525 492 ft 161 kts 44°
2026-05-05 18:00 51.90060 0.25788 1304 ft 167 kts 42°
2026-05-05 18:00 51.90894 0.27025 2324 ft 159 kts 42°
2026-05-05 18:00 51.91716 0.28251 3079 ft 165 kts 42°
2026-05-05 18:00 51.92663 0.29363 3764 ft 172 kts 23°
2026-05-05 18:01 51.93837 0.29817 4520 ft 176 kts
2026-05-05 18:01 51.95061 0.29509 5193 ft 183 kts 339°
2026-05-05 18:01 51.96137 0.28364 5870 ft 189 kts 315°
2026-05-05 18:01 51.96795 0.26510 6528 ft 194 kts 287°
2026-05-05 18:02 51.96974 0.24362 7283 ft 188 kts 279°
2026-05-05 18:02 51.97109 0.22859 7009 ft 222 kts 282°
2026-05-05 18:02 51.97390 0.20342 7419 ft 230 kts 282°
2026-05-05 18:02 51.97699 0.17709 7858 ft 237 kts 282°
2026-05-05 18:03 51.97997 0.15092 8597 ft 237 kts 282°
2026-05-05 18:03 51.98296 0.12410 9230 ft 246 kts 282°
2026-05-05 18:03 51.98600 0.09644 9892 ft 253 kts 281°
2026-05-05 18:03 51.98902 0.06782 10487 ft 261 kts 277°
2026-05-05 18:04 51.98756 0.03804 11071 ft 271 kts 258°
2026-05-05 18:04 51.98328 0.00774 11670 ft 280 kts 258°
2026-05-05 18:04 51.97907 -0.02358 12255 ft 289 kts 259°
2026-05-05 18:04 51.97489 -0.05556 12859 ft 291 kts 259°
2026-05-05 18:05 51.97070 -0.08794 13475 ft 295 kts 259°
2026-05-05 18:05 51.96646 -0.12052 14051 ft 297 kts 258°
2026-05-05 18:05 51.96217 -0.15342 14598 ft 300 kts 258°
2026-05-05 18:05 51.95783 -0.18662 15168 ft 302 kts 258°
2026-05-05 18:06 51.95346 -0.21999 15741 ft 304 kts 258°
2026-05-05 18:06 51.95055 -0.24225 16093 ft 307 kts 258°
2026-05-05 18:06 51.94456 -0.28789 16780 ft 312 kts 258°
2026-05-05 18:06 51.94001 -0.32244 17312 ft 315 kts 257°
2026-05-05 18:07 51.93546 -0.35694 17840 ft 318 kts 257°
2026-05-05 18:07 51.93080 -0.39216 18365 ft 321 kts 257°
2026-05-05 18:07 51.92609 -0.42769 18853 ft 326 kts 257°
2026-05-05 18:07 51.92126 -0.46405 19333 ft 335 kts 257°
2026-05-05 18:08 51.91631 -0.50126 19785 ft 340 kts 257°
2026-05-05 18:08 51.91129 -0.53883 20229 ft 341 kts 257°
2026-05-05 18:08 51.90626 -0.57647 20683 ft 343 kts 257°
2026-05-05 18:08 51.90120 -0.61417 21148 ft 344 kts 257°
2026-05-05 18:09 51.89614 -0.65181 21614 ft 344 kts 258°
2026-05-05 18:09 51.89104 -0.68962 22127 ft 343 kts 258°
2026-05-05 18:09 51.88594 -0.72729 22665 ft 342 kts 258°
2026-05-05 18:09 51.88082 -0.76510 23223 ft 346 kts 258°
2026-05-05 18:10 51.87561 -0.80347 23748 ft 351 kts 257°
2026-05-05 18:10 51.87032 -0.84232 24231 ft 355 kts 257°
2026-05-05 18:10 51.86496 -0.88157 24710 ft 358 kts 257°
2026-05-05 18:10 51.85955 -0.92100 25201 ft 361 kts 256°
2026-05-05 18:11 51.85128 -0.95870 25664 ft 362 kts 238°
2026-05-05 18:11 51.83507 -0.98962 26194 ft 363 kts 220°
2026-05-05 18:11 51.81370 -1.01124 26719 ft 365 kts 204°
2026-05-05 18:11 51.78945 -1.02203 27222 ft 366 kts 194°
2026-05-05 18:12 51.76449 -1.03089 27643 ft 368 kts 194°
2026-05-05 18:12 51.73988 -1.03976 28058 ft 363 kts 194°
2026-05-05 18:12 51.71545 -1.04869 28481 ft 357 kts 194°
2026-05-05 18:12 51.69153 -1.05799 28913 ft 352 kts 195°
2026-05-05 18:13 51.66777 -1.06746 29368 ft 350 kts 195°
2026-05-05 18:13 51.64424 -1.07687 29819 ft 348 kts 195°
2026-05-05 18:13 51.62064 -1.08629 29932 ft 355 kts 195°
2026-05-05 18:14 51.57259 -1.10535 29947 ft 358 kts 195°
2026-05-05 18:14 51.54803 -1.11504 29997 ft 369 kts 194°
2026-05-05 18:14 51.52274 -1.12500 30122 ft 379 kts 194°
2026-05-05 18:14 51.49696 -1.13511 30426 ft 382 kts 194°
2026-05-05 18:15 51.47107 -1.14525 30841 ft 383 kts 194°
2026-05-05 18:15 51.44542 -1.15528 31224 ft 385 kts 194°
2026-05-05 18:15 51.41932 -1.16549 31559 ft 387 kts 194°
2026-05-05 18:15 51.39272 -1.17587 31872 ft 390 kts 194°
2026-05-05 18:16 51.36653 -1.18608 32197 ft 393 kts 194°
2026-05-05 18:16 51.33986 -1.19646 32505 ft 395 kts 194°
2026-05-05 18:16 51.31303 -1.20690 32706 ft 400 kts 194°
2026-05-05 18:16 51.28573 -1.21751 32870 ft 406 kts 194°
2026-05-05 18:17 51.25817 -1.22820 33213 ft 407 kts 194°
2026-05-05 18:17 51.23058 -1.23889 33557 ft 408 kts 194°
2026-05-05 18:17 51.20285 -1.24962 33844 ft 411 kts 194°
2026-05-05 18:17 51.17497 -1.26040 34088 ft 413 kts 194°
2026-05-05 18:18 51.14711 -1.27116 34299 ft 416 kts 194°
2026-05-05 18:18 51.11892 -1.28203 34522 ft 418 kts 194°
2026-05-05 18:18 51.09064 -1.29293 34750 ft 420 kts 194°
2026-05-05 18:18 51.06256 -1.30373 34957 ft 422 kts 194°
2026-05-05 18:19 51.03363 -1.31485 35164 ft 424 kts 194°
2026-05-05 18:19 51.00481 -1.32591 35371 ft 426 kts 194°
2026-05-05 18:19 50.97603 -1.33725 35567 ft 428 kts 197°
2026-05-05 18:19 50.94806 -1.35387 35752 ft 430 kts 205°
2026-05-05 18:20 50.92240 -1.37693 35942 ft 431 kts 213°
2026-05-05 18:20 50.89740 -1.40324 36146 ft 433 kts 213°
2026-05-05 18:20 50.87235 -1.42998 36336 ft 435 kts 214°
2026-05-05 18:20 50.84717 -1.45679 36515 ft 436 kts 213°
2026-05-05 18:21 50.82192 -1.48346 36755 ft 436 kts 213°
2026-05-05 18:21 50.79661 -1.50995 37022 ft 436 kts 213°
2026-05-05 18:21 50.77129 -1.53631 37244 ft 436 kts 213°
2026-05-05 18:21 50.74591 -1.56262 37477 ft 436 kts 213°
2026-05-05 18:22 50.72050 -1.58890 37699 ft 437 kts 213°
2026-05-05 18:22 50.69505 -1.61519 37885 ft 437 kts 213°
2026-05-05 18:22 50.66957 -1.64147 38137 ft 437 kts 213°
2026-05-05 18:22 50.64411 -1.66771 38346 ft 437 kts 213°
2026-05-05 18:23 50.61865 -1.69393 38501 ft 439 kts 213°
2026-05-05 18:23 50.59304 -1.72027 38621 ft 440 kts 213°
2026-05-05 18:23 50.56739 -1.74663 38800 ft 440 kts 213°
2026-05-05 18:23 50.54174 -1.77292 38991 ft 439 kts 213°
2026-05-05 18:24 50.51618 -1.79907 39139 ft 439 kts 212°
2026-05-05 18:24 50.49051 -1.82518 39259 ft 440 kts 212°
2026-05-05 18:24 50.46479 -1.85125 39408 ft 440 kts 212°
2026-05-05 18:24 50.43907 -1.87729 39587 ft 439 kts 213°
2026-05-05 18:25 50.41341 -1.90325 39703 ft 440 kts 213°
2026-05-05 18:25 50.39637 -1.92048 39808 ft 438 kts 213°
2026-05-05 18:25 50.36215 -1.95506 39903 ft 439 kts 213°
2026-05-05 18:26 50.31055 -2.00710 39918 ft 442 kts 213°
2026-05-05 18:26 50.25762 -2.05589 39911 ft 442 kts 202°
2026-05-05 18:27 50.19833 -2.08003 39918 ft 442 kts 185°
2026-05-05 18:27 50.13697 -2.08728 39932 ft 442 kts 184°
2026-05-05 18:28 50.04526 -2.09857 39928 ft 442 kts 185°
2026-05-05 18:28 49.98355 -2.10675 39930 ft 442 kts 184°
2026-05-05 18:29 49.92205 -2.10829 39933 ft 442 kts 179°
2026-05-05 18:29 49.86051 -2.10641 39955 ft 442 kts 179°
2026-05-05 18:30 49.79938 -2.10551 39964 ft 442 kts 180°
2026-05-05 18:30 49.73785 -2.10476 39966 ft 442 kts 177°
2026-05-05 18:31 49.67754 -2.08646 39979 ft 443 kts 164°
2026-05-05 18:31 49.61837 -2.05947 39966 ft 444 kts 164°
2026-05-05 18:32 49.55905 -2.03270 39957 ft 444 kts 164°
2026-05-05 18:32 49.49956 -2.00647 39946 ft 445 kts 165°
2026-05-05 18:33 49.43990 -1.98043 39942 ft 446 kts 165°
2026-05-05 18:33 49.38019 -1.95446 39932 ft 446 kts 165°
2026-05-05 18:34 49.32041 -1.92851 39929 ft 447 kts 165°
2026-05-05 18:34 49.26060 -1.90260 39929 ft 447 kts 165°
2026-05-05 18:35 49.20066 -1.87671 39942 ft 447 kts 165°
2026-05-05 18:35 49.14074 -1.85088 39928 ft 448 kts 165°
2026-05-05 18:36 49.08070 -1.82506 39928 ft 448 kts 165°
2026-05-05 18:36 49.02114 -1.79951 39920 ft 448 kts 165°
2026-05-05 18:37 48.96123 -1.77388 39928 ft 447 kts 166°
2026-05-05 18:37 48.90081 -1.75172 39916 ft 446 kts 175°
2026-05-05 18:38 48.83903 -1.74965 39923 ft 444 kts 181°
2026-05-05 18:38 48.77726 -1.74987 39926 ft 444 kts 181°
2026-05-05 18:39 48.71544 -1.74962 39727 ft 448 kts 180°
2026-05-05 18:39 48.68414 -1.74932 39268 ft 451 kts 180°
2026-05-05 18:39 48.65279 -1.74897 38746 ft 450 kts 180°
2026-05-05 18:40 48.62151 -1.74859 38091 ft 450 kts 180°
2026-05-05 18:40 48.59031 -1.74821 37598 ft 446 kts 179°
2026-05-05 18:40 48.55957 -1.74783 37188 ft 440 kts 179°
2026-05-05 18:40 48.52913 -1.74746 36793 ft 434 kts 179°
2026-05-05 18:41 48.49907 -1.74709 36383 ft 429 kts 179°
2026-05-05 18:41 48.46939 -1.74674 35992 ft 424 kts 179°
2026-05-05 18:41 48.43999 -1.74639 35608 ft 420 kts 178°
2026-05-05 18:41 48.41088 -1.74605 35216 ft 417 kts 178°
2026-05-05 18:42 48.38201 -1.74571 34822 ft 413 kts 178°
2026-05-05 18:42 48.35335 -1.74537 34439 ft 410 kts 178°
2026-05-05 18:42 48.32496 -1.74503 34054 ft 407 kts 178°
2026-05-05 18:42 48.29672 -1.74470 33619 ft 404 kts 177°
2026-05-05 18:43 48.26871 -1.74437 33187 ft 401 kts 177°
2026-05-05 18:43 48.24097 -1.74404 32787 ft 397 kts 177°
2026-05-05 18:43 48.21348 -1.74372 32420 ft 393 kts 177°
2026-05-05 18:43 48.18619 -1.74340 32039 ft 391 kts 176°
2026-05-05 18:44 48.15914 -1.74307 31661 ft 388 kts 176°
2026-05-05 18:44 48.13220 -1.74276 31283 ft 385 kts 176°
2026-05-05 18:44 48.10550 -1.74244 30916 ft 383 kts 176°
2026-05-05 18:44 48.07923 -1.74287 30548 ft 383 kts 181°
2026-05-05 18:45 48.05295 -1.74942 30237 ft 383 kts 192°
2026-05-05 18:45 48.02768 -1.76171 29923 ft 381 kts 195°
2026-05-05 18:45 48.00274 -1.77483 29513 ft 379 kts 196°
2026-05-05 18:45 47.97798 -1.78799 29154 ft 376 kts 195°
2026-05-05 18:46 47.95341 -1.80095 28768 ft 373 kts 195°
2026-05-05 18:46 47.92908 -1.81365 28410 ft 369 kts 195°
2026-05-05 18:46 47.90487 -1.82616 28043 ft 367 kts 195°
2026-05-05 18:46 47.88081 -1.83851 27675 ft 364 kts 195°
2026-05-05 18:47 47.85696 -1.85071 27313 ft 362 kts 195°
2026-05-05 18:47 47.83318 -1.86285 26964 ft 359 kts 195°
2026-05-05 18:47 47.80960 -1.87486 26610 ft 357 kts 196°
2026-05-05 18:47 47.78614 -1.88681 26279 ft 356 kts 196°
2026-05-05 18:48 47.76276 -1.89871 25924 ft 355 kts 196°
2026-05-05 18:48 47.73945 -1.91056 25569 ft 354 kts 196°
2026-05-05 18:48 47.71618 -1.92238 25228 ft 353 kts 196°
2026-05-05 18:48 47.69304 -1.93412 24866 ft 351 kts 196°
2026-05-05 18:49 47.67742 -1.94204 24639 ft 350 kts 197°
2026-05-05 18:49 47.65434 -1.95123 24274 ft 346 kts 182°
2026-05-05 18:49 47.63056 -1.94946 23770 ft 344 kts 164°
2026-05-05 18:49 47.60822 -1.93682 23239 ft 343 kts 151°
2026-05-05 18:50 47.58671 -1.92119 22756 ft 344 kts 150°
2026-05-05 18:50 47.56542 -1.90536 22397 ft 341 kts 150°
2026-05-05 18:50 47.54426 -1.88963 22038 ft 339 kts 151°
2026-05-05 18:50 47.52322 -1.87410 21685 ft 337 kts 151°
2026-05-05 18:51 47.50226 -1.85874 21342 ft 335 kts 151°
2026-05-05 18:51 47.48141 -1.84354 21001 ft 333 kts 151°
2026-05-05 18:51 47.46070 -1.82850 20660 ft 331 kts 151°
2026-05-05 18:51 47.44006 -1.81355 20324 ft 329 kts 152°
2026-05-05 18:52 47.41955 -1.79871 19993 ft 327 kts 153°
2026-05-05 18:52 47.39921 -1.78403 19656 ft 325 kts 152°
2026-05-05 18:52 47.37894 -1.76940 19342 ft 323 kts 153°
2026-05-05 18:52 47.35883 -1.75491 19016 ft 321 kts 153°
2026-05-05 18:53 47.33875 -1.74046 18679 ft 321 kts 154°
2026-05-05 18:53 47.31876 -1.72607 18360 ft 319 kts 154°
2026-05-05 18:53 47.29882 -1.71173 18012 ft 319 kts 155°
2026-05-05 18:53 47.27894 -1.69747 17648 ft 317 kts 154°
2026-05-05 18:54 47.25916 -1.68328 17311 ft 315 kts 154°
2026-05-05 18:54 47.23949 -1.66917 16976 ft 313 kts 154°
2026-05-05 18:54 47.21995 -1.65517 16663 ft 312 kts 154°
2026-05-05 18:54 47.20053 -1.64127 16341 ft 309 kts 154°
2026-05-05 18:55 47.18128 -1.62751 16031 ft 307 kts 154°
2026-05-05 18:55 47.16207 -1.61392 15718 ft 305 kts 156°
2026-05-05 18:55 47.14213 -1.60343 15398 ft 303 kts 164°
2026-05-05 18:55 47.12185 -1.59532 15088 ft 301 kts 166°
2026-05-05 18:56 47.10155 -1.58773 14772 ft 301 kts 167°
2026-05-05 18:56 47.08130 -1.58017 14459 ft 300 kts 166°
2026-05-05 18:56 47.06112 -1.57253 14149 ft 299 kts 166°
2026-05-05 18:56 47.04101 -1.56480 13833 ft 298 kts 167°
2026-05-05 18:57 47.02101 -1.55702 13504 ft 298 kts 167°
2026-05-05 18:57 47.00103 -1.54919 13161 ft 297 kts 167°
2026-05-05 18:57 46.98114 -1.54137 12839 ft 295 kts 166°
2026-05-05 18:57 46.96137 -1.53356 12521 ft 294 kts 167°
2026-05-05 18:58 46.94171 -1.52580 12216 ft 292 kts 166°
2026-05-05 18:58 46.92214 -1.51807 11907 ft 290 kts 167°
2026-05-05 18:58 46.90270 -1.51037 11601 ft 289 kts 167°
2026-05-05 18:58 46.88329 -1.50272 11309 ft 288 kts 166°
2026-05-05 18:59 46.86400 -1.49510 10999 ft 287 kts 166°
2026-05-05 18:59 46.84479 -1.48753 10702 ft 286 kts 166°
2026-05-05 18:59 46.82561 -1.47997 10404 ft 285 kts 166°
2026-05-05 18:59 46.80639 -1.47239 10108 ft 289 kts 167°
2026-05-05 19:00 46.78725 -1.46486 9956 ft 288 kts 167°
2026-05-05 19:00 46.76748 -1.45711 9652 ft 293 kts 166°
2026-05-05 19:00 46.74800 -1.44944 9333 ft 294 kts 167°
2026-05-05 19:00 46.72832 -1.44170 9016 ft 292 kts 167°
2026-05-05 19:01 46.70872 -1.43399 8702 ft 291 kts 167°
2026-05-05 19:01 46.68919 -1.42633 8398 ft 290 kts 167°
2026-05-05 19:01 46.66968 -1.41868 8106 ft 290 kts 166°
2026-05-05 19:01 46.65021 -1.41104 7926 ft 292 kts 167°
2026-05-05 19:02 46.63056 -1.40336 7893 ft 293 kts 166°
2026-05-05 19:02 46.61099 -1.39570 7884 ft 291 kts 167°
2026-05-05 19:02 46.59146 -1.38802 7880 ft 291 kts 166°
2026-05-05 19:02 46.57201 -1.38016 7885 ft 289 kts 166°
2026-05-05 19:03 46.55267 -1.37231 7878 ft 288 kts 166°
2026-05-05 19:03 46.53334 -1.36448 7875 ft 287 kts 166°
2026-05-05 19:03 46.51413 -1.35668 7880 ft 287 kts 165°
2026-05-05 19:03 46.49671 -1.34285 7878 ft 289 kts 137°
2026-05-05 19:04 46.48380 -1.32054 7874 ft 289 kts 127°
2026-05-05 19:04 46.47213 -1.29690 7713 ft 287 kts 125°
2026-05-05 19:04 46.46061 -1.27319 7313 ft 289 kts 125°
2026-05-05 19:04 46.44900 -1.24939 6991 ft 289 kts 126°
2026-05-05 19:05 46.43731 -1.22564 6638 ft 289 kts 126°
2026-05-05 19:05 46.42593 -1.20270 6546 ft 272 kts 127°
2026-05-05 19:05 46.41514 -1.18105 6433 ft 257 kts 127°
2026-05-05 19:05 46.40478 -1.16031 6139 ft 252 kts 127°
2026-05-05 19:06 46.39447 -1.13974 5782 ft 253 kts 127°
2026-05-05 19:06 46.38417 -1.11921 5541 ft 251 kts 127°
2026-05-05 19:06 46.37395 -1.09885 5333 ft 249 kts 127°
2026-05-05 19:06 46.36375 -1.07857 5094 ft 249 kts 127°
2026-05-05 19:07 46.35356 -1.05832 4831 ft 249 kts 127°
2026-05-05 19:07 46.34352 -1.03837 4619 ft 247 kts 127°
2026-05-05 19:07 46.33340 -1.01828 4387 ft 246 kts 127°
2026-05-05 19:07 46.32329 -0.99821 4088 ft 247 kts 127°
2026-05-05 19:08 46.31307 -0.97796 3891 ft 245 kts 127°
2026-05-05 19:08 46.30316 -0.95835 3653 ft 244 kts 127°
2026-05-05 19:08 46.29318 -0.93859 3437 ft 243 kts 127°
2026-05-05 19:08 46.28266 -0.91959 3191 ft 240 kts 141°
2026-05-05 19:09 46.26791 -0.90972 2943 ft 233 kts 177°
2026-05-05 19:09 46.25235 -0.91221 2847 ft 219 kts 201°
2026-05-05 19:09 46.23900 -0.92130 2795 ft 207 kts 212°
2026-05-05 19:09 46.22641 -0.93119 2602 ft 207 kts 212°
2026-05-05 19:10 46.21369 -0.94106 2537 ft 207 kts 212°
2026-05-05 19:10 46.20104 -0.95080 2492 ft 205 kts 212°
2026-05-05 19:10 46.18854 -0.96038 2492 ft 203 kts 212°
2026-05-05 19:10 46.17704 -0.97132 2479 ft 197 kts 234°
2026-05-05 19:11 46.17303 -0.98887 2498 ft 180 kts 276°
2026-05-05 19:11 46.17451 -1.00605 2485 ft 166 kts 270°
2026-05-05 19:11 46.17411 -1.02207 2480 ft 158 kts 273°
2026-05-05 19:11 46.17465 -1.03800 2308 ft 158 kts 274°
2026-05-05 19:12 46.17516 -1.05383 2083 ft 157 kts 274°
2026-05-05 19:12 46.17561 -1.06946 1850 ft 155 kts 273°
2026-05-05 19:12 46.17604 -1.08488 1626 ft 153 kts 275°
2026-05-05 19:12 46.17665 -1.09977 1403 ft 143 kts 273°
2026-05-05 19:13 46.17689 -1.11341 1206 ft 131 kts 274°
2026-05-05 19:13 46.17730 -1.12613 1040 ft 122 kts 273°
2026-05-05 19:13 46.17764 -1.13858 930 ft 128 kts 273°
2026-05-05 19:13 46.17794 -1.15150 700 ft 132 kts 273°
2026-05-05 19:14 46.17831 -1.16470 438 ft 131 kts 273°
2026-05-05 19:14 46.17872 -1.17782 236 ft 128 kts 271°
2026-05-05 19:14 46.17905 -1.19024 82 ft 122 kts 272°
2026-05-05 19:14 46.17936 -1.20063 77 ft 75 kts 272°
2026-05-05 19:15 46.17951 -1.20607 73 ft 45 kts 272°
2026-05-05 19:15 46.17949 -1.20865 73 ft 11 kts 237°
2026-05-05 19:15 46.17960 -1.20919 73 ft 4 kts 28°
2026-05-05 19:15 46.17961 -1.20870 70 ft 7 kts 96°
2026-05-05 19:16 46.17956 -1.20769 66 ft 15 kts 93°
2026-05-05 19:16 46.17950 -1.20584 73 ft 20 kts 92°
2026-05-05 19:16 46.17944 -1.20392 70 ft 19 kts 92°
2026-05-05 19:16 46.17937 -1.20205 73 ft 18 kts 92°
2026-05-05 19:17 46.17934 -1.20019 77 ft 20 kts 95°
2026-05-05 19:17 46.17927 -1.19802 68 ft 24 kts 92°
2026-05-05 19:17 46.17921 -1.19573 76 ft 22 kts 92°
2026-05-05 19:17 46.17845 -1.19493 68 ft 15 kts 182°
2026-05-05 19:18 46.17740 -1.19501 72 ft 15 kts 184°
2026-05-05 19:18 46.17694 -1.19421 76 ft 9 kts 95°
2026-05-05 19:18 46.17655 -1.19397 73 ft 6 kts 203°
2026-05-05 19:18 46.17649 -1.19418 65 ft 1 kts 283°
2026-05-05 19:19 46.17654 -1.19427 74 ft 0 kts 320°
2026-05-05 19:19 46.17655 -1.19429 74 ft 0 kts 319°